Time,TemperatureF,DewpointF,PressureIn,WindDirection,WindDirectionDegrees,WindSpeedMPH,WindSpeedGustMPH,Humidity,HourlyPrecipIn,Conditions,Clouds,dailyrainin,SoftwareType,DateUTC
2013-09-27 00:14:00,39.2,31.6,29.80,East,90,1.6,-999.0,74,-99.99,,,0.00,Acu-Link.com,2013-09-27 07:14:00,
2013-09-27 00:29:00,41.0,32.7,29.80,East,90,1.6,-999.0,72,-99.99,,,0.00,Acu-Link.com,2013-09-27 07:29:00,
2013-09-27 00:44:00,41.0,32.3,29.79,ESE,112,0.0,-999.0,71,-99.99,,,0.00,Acu-Link.com,2013-09-27 07:44:00,
2013-09-27 01:00:00,41.0,31.3,29.79,ESE,112,0.0,-999.0,68,-99.99,,,0.00,Acu-Link.com,2013-09-27 08:00:00,
2013-09-27 01:16:00,41.0,31.6,29.79,East,90,0.0,-999.0,69,-99.99,,,0.00,Acu-Link.com,2013-09-27 08:16:00,
2013-09-27 01:31:00,41.0,31.6,29.78,NE,45,0.0,-999.0,69,-99.99,,,0.00,Acu-Link.com,2013-09-27 08:31:00,
2013-09-27 01:47:00,41.0,32.3,29.78,NE,45,0.0,-999.0,71,-99.99,,,0.00,Acu-Link.com,2013-09-27 08:47:00,
2013-09-27 02:02:00,41.0,32.0,29.78,ENE,67,1.6,-999.0,70,-99.99,,,0.00,Acu-Link.com,2013-09-27 09:02:00,
2013-09-27 02:17:00,41.0,32.7,29.78,WNW,292,0.0,-999.0,72,-99.99,,,0.00,Acu-Link.com,2013-09-27 09:17:00,
2013-09-27 02:32:00,41.0,32.7,29.78,ENE,67,0.0,-999.0,72,-99.99,,,0.00,Acu-Link.com,2013-09-27 09:32:00,
2013-09-27 02:48:00,41.0,32.7,29.78,WNW,292,0.0,-999.0,72,-99.99,,,0.00,Acu-Link.com,2013-09-27 09:48:00,
2013-09-27 03:03:00,41.0,33.0,29.78,WNW,292,0.0,-999.0,73,-99.99,,,0.00,Acu-Link.com,2013-09-27 10:03:00,
2013-09-27 03:18:00,41.0,33.4,29.79,West,270,0.0,-999.0,74,-99.99,,,0.00,Acu-Link.com,2013-09-27 10:18:00,
2013-09-27 03:33:00,41.0,34.0,29.78,West,270,0.0,-999.0,76,-99.99,,,0.00,Acu-Link.com,2013-09-27 10:33:00,
2013-09-27 03:48:00,41.0,33.7,29.79,NNE,22,0.0,-999.0,75,-99.99,,,0.00,Acu-Link.com,2013-09-27 10:48:00,
2013-09-27 04:04:00,41.0,33.7,29.79,SE,135,1.6,-999.0,75,-99.99,,,0.00,Acu-Link.com,2013-09-27 11:04:00,
2013-09-27 04:19:00,41.0,34.0,29.79,WNW,292,1.1,-999.0,76,-99.99,,,0.00,Acu-Link.com,2013-09-27 11:19:00,
2013-09-27 04:34:00,39.2,34.2,29.80,South,180,0.0,-999.0,82,-99.99,,,0.00,Acu-Link.com,2013-09-27 11:34:00,
2013-09-27 04:51:00,39.2,35.1,29.79,South,180,0.0,-999.0,85,-99.99,,,0.00,Acu-Link.com,2013-09-27 11:51:00,
2013-09-27 05:06:00,37.4,34.7,29.78,SSE,157,0.0,-999.0,90,-99.99,,,0.00,Acu-Link.com,2013-09-27 12:06:00,
2013-09-27 05:22:00,37.4,36.9,29.78,SSE,157,0.0,-999.0,98,-99.99,,,0.01,Acu-Link.com,2013-09-27 12:22:00,
2013-09-27 05:37:00,37.4,36.9,29.78,SE,135,0.0,-999.0,98,-99.99,,,0.02,Acu-Link.com,2013-09-27 12:37:00,
2013-09-27 05:52:00,37.4,36.9,29.77,SE,135,0.0,-999.0,98,-99.99,,,0.05,Acu-Link.com,2013-09-27 12:52:00,
2013-09-27 06:07:00,37.4,36.9,29.77,SW,225,0.0,-999.0,98,-99.99,,,0.07,Acu-Link.com,2013-09-27 13:07:00,
2013-09-27 06:22:00,37.4,36.9,29.77,SSW,202,0.0,-999.0,98,-99.99,,,0.08,Acu-Link.com,2013-09-27 13:22:00,
2013-09-27 06:38:00,37.4,36.9,29.77,WSW,247,0.0,-999.0,98,-99.99,,,0.78,Acu-Link.com,2013-09-27 13:38:00,
2013-09-27 06:53:00,37.4,36.9,29.78,South,180,0.0,-999.0,98,-99.99,,,0.80,Acu-Link.com,2013-09-27 13:53:00,
2013-09-27 07:08:00,37.4,36.9,29.78,NE,45,0.0,-999.0,98,-99.99,,,0.84,Acu-Link.com,2013-09-27 14:08:00,
2013-09-27 07:23:00,37.4,36.9,29.77,ENE,67,0.0,-999.0,98,-99.99,,,0.88,Acu-Link.com,2013-09-27 14:23:00,
2013-09-27 07:38:00,37.4,36.9,29.77,ENE,67,0.0,-999.0,98,-99.99,,,0.91,Acu-Link.com,2013-09-27 14:38:00,
2013-09-27 07:53:00,37.4,36.9,29.78,ENE,67,0.0,-999.0,98,-99.99,,,0.97,Acu-Link.com,2013-09-27 14:53:00,
2013-09-27 08:08:00,37.4,36.9,29.77,ENE,67,0.0,-999.0,98,-99.99,,,1.00,Acu-Link.com,2013-09-27 15:08:00,
2013-09-27 08:23:00,37.4,36.9,29.77,ESE,112,0.0,-999.0,98,-99.99,,,1.03,Acu-Link.com,2013-09-27 15:23:00,
2013-09-27 08:38:00,37.4,36.9,29.77,ESE,112,0.0,-999.0,98,-99.99,,,1.04,Acu-Link.com,2013-09-27 15:38:00,
2013-09-27 08:53:00,37.4,36.9,29.76,East,90,0.0,-999.0,98,-99.99,,,1.08,Acu-Link.com,2013-09-27 15:53:00,
2013-09-27 09:09:00,37.4,36.9,29.76,ESE,112,0.0,-999.0,98,-99.99,,,1.09,Acu-Link.com,2013-09-27 16:09:00,
2013-09-27 09:24:00,37.4,36.9,29.76,East,90,0.0,-999.0,98,-99.99,,,1.11,Acu-Link.com,2013-09-27 16:24:00,
2013-09-27 09:39:00,37.4,36.9,29.76,ESE,112,2.0,-999.0,98,-99.99,,,1.13,Acu-Link.com,2013-09-27 16:39:00,
2013-09-27 09:54:00,39.2,38.7,29.76,ESE,112,1.6,-999.0,98,-99.99,,,1.15,Acu-Link.com,2013-09-27 16:54:00,
2013-09-27 10:09:00,39.2,38.7,29.75,ESE,112,0.0,-999.0,98,-99.99,,,1.15,Acu-Link.com,2013-09-27 17:09:00,
2013-09-27 10:24:00,39.2,38.7,29.75,SE,135,2.0,-999.0,98,-99.99,,,1.16,Acu-Link.com,2013-09-27 17:24:00,
2013-09-27 10:40:00,41.0,38.6,29.75,ESE,112,1.1,-999.0,91,-99.99,,,1.17,Acu-Link.com,2013-09-27 17:40:00,
2013-09-27 10:55:00,41.0,38.6,29.75,SSE,157,1.6,-999.0,91,-99.99,,,1.19,Acu-Link.com,2013-09-27 17:55:00,
2013-09-27 11:10:00,41.0,38.3,29.74,East,90,2.7,-999.0,90,-99.99,,,1.19,Acu-Link.com,2013-09-27 18:10:00,
2013-09-27 11:25:00,42.8,39.8,29.74,ESE,112,0.0,-999.0,89,-99.99,,,1.19,Acu-Link.com,2013-09-27 18:25:00,
2013-09-27 11:40:00,42.8,39.8,29.74,ESE,112,2.0,-999.0,89,-99.99,,,1.19,Acu-Link.com,2013-09-27 18:40:00,
2013-09-27 11:56:00,42.8,39.8,29.73,NE,45,1.6,-999.0,89,-99.99,,,1.19,Acu-Link.com,2013-09-27 18:56:00,
2013-09-27 12:11:00,42.8,39.5,29.73,SE,135,1.6,-999.0,88,-99.99,,,1.19,Acu-Link.com,2013-09-27 19:11:00,
2013-09-27 12:26:00,44.6,41.3,29.73,ESE,112,1.1,-999.0,88,-99.99,,,1.19,Acu-Link.com,2013-09-27 19:26:00,
2013-09-27 12:41:00,44.6,41.0,29.73,East,90,1.6,-999.0,87,-99.99,,,1.19,Acu-Link.com,2013-09-27 19:41:00,
2013-09-27 12:56:00,44.6,41.0,29.72,ESE,112,2.0,-999.0,87,-99.99,,,1.19,Acu-Link.com,2013-09-27 19:56:00,
2013-09-27 13:11:00,44.6,41.0,29.72,ESE,112,2.0,-999.0,87,-99.99,,,1.19,Acu-Link.com,2013-09-27 20:11:00,
2013-09-27 13:26:00,44.6,41.0,29.72,East,90,2.7,-999.0,87,-99.99,,,1.19,Acu-Link.com,2013-09-27 20:26:00,
2013-09-27 13:42:00,44.6,42.4,29.71,ESE,112,1.1,-999.0,92,-99.99,,,1.19,Acu-Link.com,2013-09-27 20:42:00,
2013-09-27 13:57:00,44.6,41.9,29.71,SSE,157,2.0,-999.0,90,-99.99,,,1.20,Acu-Link.com,2013-09-27 20:57:00,
2013-09-27 14:12:00,44.6,41.9,29.70,ESE,112,1.6,-999.0,90,-99.99,,,1.20,Acu-Link.com,2013-09-27 21:12:00,
2013-09-27 14:27:00,46.4,43.6,29.70,SSE,157,1.6,-999.0,90,-99.99,,,1.20,Acu-Link.com,2013-09-27 21:27:00,
2013-09-27 14:42:00,46.4,43.3,29.69,ENE,67,1.6,-999.0,89,-99.99,,,1.20,Acu-Link.com,2013-09-27 21:42:00,
2013-09-27 14:57:00,44.6,41.6,29.68,SE,135,2.0,-999.0,89,-99.99,,,1.20,Acu-Link.com,2013-09-27 21:57:00,
2013-09-27 15:12:00,46.4,43.0,29.68,East,90,2.7,-999.0,88,-99.99,,,1.20,Acu-Link.com,2013-09-27 22:12:00,
2013-09-27 15:28:00,46.4,42.4,29.67,ESE,112,1.6,-999.0,86,-99.99,,,1.20,Acu-Link.com,2013-09-27 22:28:00,
2013-09-27 15:43:00,46.4,42.7,29.67,ENE,67,0.0,-999.0,87,-99.99,,,1.20,Acu-Link.com,2013-09-27 22:43:00,
2013-09-27 15:58:00,46.4,42.7,29.68,SW,225,0.0,-999.0,87,-99.99,,,1.20,Acu-Link.com,2013-09-27 22:58:00,
2013-09-27 16:13:00,46.4,43.0,29.67,NE,45,0.0,-999.0,88,-99.99,,,1.20,Acu-Link.com,2013-09-27 23:13:00,
2013-09-27 16:29:00,44.6,41.9,29.67,North,0,1.6,-999.0,90,-99.99,,,1.23,Acu-Link.com,2013-09-27 23:29:00,
2013-09-27 16:44:00,44.6,44.1,29.66,SSW,202,1.1,-999.0,98,-99.99,,,1.41,Acu-Link.com,2013-09-27 23:44:00,
2013-09-27 16:59:00,44.6,44.1,29.67,SSW,202,1.6,-999.0,98,-99.99,,,1.47,Acu-Link.com,2013-09-27 23:59:00,
2013-09-27 17:14:00,44.6,44.1,29.66,ENE,67,2.7,-999.0,98,-99.99,,,1.54,Acu-Link.com,2013-09-28 00:14:00,
2013-09-27 17:29:00,44.6,41.9,29.65,ESE,112,1.6,-999.0,90,-99.99,,,1.63,Acu-Link.com,2013-09-28 00:29:00,
2013-09-27 17:44:00,42.8,42.3,29.65,ESE,112,1.1,-999.0,98,-99.99,,,1.66,Acu-Link.com,2013-09-28 00:44:00,
2013-09-27 18:00:00,44.6,44.1,29.64,SE,135,2.7,-999.0,98,-99.99,,,1.68,Acu-Link.com,2013-09-28 01:00:00,
2013-09-27 18:15:00,42.8,42.3,29.63,SE,135,2.0,-999.0,98,-99.99,,,1.73,Acu-Link.com,2013-09-28 01:15:00,
2013-09-27 18:30:00,42.8,42.3,29.63,ESE,112,1.6,-999.0,98,-99.99,,,1.80,Acu-Link.com,2013-09-28 01:30:00,
2013-09-27 18:45:00,42.8,42.3,29.62,ESE,112,2.0,-999.0,98,-99.99,,,1.80,Acu-Link.com,2013-09-28 01:45:00,
2013-09-27 19:01:00,42.8,42.3,29.61,South,180,1.6,-999.0,98,-99.99,,,1.81,Acu-Link.com,2013-09-28 02:01:00,
2013-09-27 19:16:00,42.8,42.3,29.61,ESE,112,2.7,-999.0,98,-99.99,,,1.81,Acu-Link.com,2013-09-28 02:16:00,
2013-09-27 19:31:00,42.8,42.3,29.60,SE,135,1.1,-999.0,98,-99.99,,,1.81,Acu-Link.com,2013-09-28 02:31:00,
2013-09-27 19:46:00,42.8,42.3,29.60,ESE,112,2.0,-999.0,98,-99.99,,,1.81,Acu-Link.com,2013-09-28 02:46:00,
2013-09-27 20:01:00,41.0,40.5,29.60,ESE,112,2.0,-999.0,98,-99.99,,,1.81,Acu-Link.com,2013-09-28 03:01:00,
2013-09-27 20:16:00,41.0,40.5,29.59,SSE,157,2.0,-999.0,98,-99.99,,,1.81,Acu-Link.com,2013-09-28 03:16:00,
2013-09-27 20:31:00,41.0,40.5,29.59,East,90,2.0,-999.0,98,-99.99,,,1.81,Acu-Link.com,2013-09-28 03:31:00,
2013-09-27 20:46:00,41.0,40.5,29.59,ESE,112,2.0,-999.0,98,-99.99,,,1.81,Acu-Link.com,2013-09-28 03:46:00,
2013-09-27 21:01:00,41.0,40.5,29.59,ESE,112,2.0,-999.0,98,-99.99,,,1.81,Acu-Link.com,2013-09-28 04:01:00,
2013-09-27 21:16:00,41.0,40.5,29.58,SE,135,2.7,-999.0,98,-99.99,,,1.81,Acu-Link.com,2013-09-28 04:16:00,
2013-09-27 21:32:00,41.0,40.5,29.58,East,90,2.7,-999.0,98,-99.99,,,1.81,Acu-Link.com,2013-09-28 04:32:00,
2013-09-27 21:47:00,41.0,40.5,29.57,East,90,1.6,-999.0,98,-99.99,,,1.81,Acu-Link.com,2013-09-28 04:47:00,
2013-09-27 22:02:00,41.0,40.5,29.57,East,90,1.6,-999.0,98,-99.99,,,1.81,Acu-Link.com,2013-09-28 05:02:00,
2013-09-27 22:17:00,41.0,40.5,29.57,ESE,112,2.7,-999.0,98,-99.99,,,1.81,Acu-Link.com,2013-09-28 05:17:00,
2013-09-27 22:32:00,41.0,40.5,29.56,ESE,112,2.0,-999.0,98,-99.99,,,1.81,Acu-Link.com,2013-09-28 05:32:00,
2013-09-27 22:47:00,41.0,40.5,29.56,SE,135,2.0,-999.0,98,-99.99,,,1.81,Acu-Link.com,2013-09-28 05:47:00,
2013-09-27 23:02:00,41.0,40.5,29.55,SE,135,2.0,-999.0,98,-99.99,,,1.81,Acu-Link.com,2013-09-28 06:02:00,
2013-09-27 23:18:00,41.0,40.5,29.55,ESE,112,2.0,-999.0,98,-99.99,,,1.81,Acu-Link.com,2013-09-28 06:18:00,
2013-09-27 23:33:00,41.0,40.5,29.54,ESE,112,2.0,-999.0,98,-99.99,,,1.81,Acu-Link.com,2013-09-28 06:33:00,
2013-09-27 23:48:00,41.0,40.5,29.54,ESE,112,1.6,-999.0,98,-99.99,,,1.81,Acu-Link.com,2013-09-28 06:48:00,